[Date Prev][Date Next][Thread Prev][Thread Next] - [Date Index][Thread Index][Author Index]

2 Line ISS Keps 3-21



ISS
1 25544U 98067A   03081.19402865  .00019785  00000-0  25439-3 0  8059
2 25544  51.6352  97.1612 0008167 357.8481 128.6062 15.59048219247437



----
Via the sarex mailing list at AMSAT.ORG courtesy of AMSAT-NA.
To unsubscribe, send "unsubscribe sarex" to Majordomo@amsat.org



AMSAT Top AMSAT Home